Regional Weather Roundup
Issued by NWS

Home | Current Version | Previous Version | Graphics & Text | Print | Product List | Glossary On
Versions: 1 2 3 4 5 6 7 8 9 10 11 12 13 14 15 16 17 18 19 20 21 22 23 24 25 26 27 28 29 30 31 32 33 34 35 36 37 38 39 40 41 42 43 44 45 46 47 48 49 50
000
ASUS45 KBOI 251010
RWRID
WEATHER ROUNDUP FOR IDAHO
NATIONAL WEATHER SERVICE BOISE ID
400 AM MDT SAT APR 25 2015

NOTE: "FAIR" INDICATES FEW OR NO CLOUDS BELOW 12000 FEET
WITH NO SIGNIFICANT WEATHER AND/OR OBSTRUCTIONS TO VISIBILITY

IDZ012-014-251100-
SOUTHWEST IDAHO


CITY           SKY/WX    TMP DP  RH WIND       PRES   REMARKS
BOISE          MOCLDY    45  31  58 W7        29.78S
CALDWELL       CLOUDY    45  30  57 NW6       29.81S
MOUNTAIN HOME  PTCLDY    42  33  69 NW2       29.78F
$$

IDZ016-017-251100-
SOUTHCENTRAL IDAHO


CITY           SKY/WX    TMP DP  RH WIND       PRES   REMARKS
BURLEY         PTCLDY    38  31  76 SW9       29.77S WCI  31
JEROME         MOCLDY    39  32  76 SW10      29.78S WCI  32
TWIN FALLS     CLOUDY    40  31  70 S13       29.79S WCI  32
$$

IDZ019>023-251100-
SOUTHEAST IDAHO


CITY           SKY/WX    TMP DP  RH WIND       PRES   REMARKS
IDAHO FALLS    CLOUDY    39  34  82 W7        29.77R WCI  34
POCATELLO      CLOUDY    43  32  65 SW10      29.79S
REXBURG        CLOUDY    37  35  92 SW13      29.75R WCI  29
$$

IDZ006-010-011-018-031-032-251100-
CENTRAL IDAHO MOUNTAINS


CITY           SKY/WX    TMP DP  RH WIND       PRES   REMARKS
MCCALL         PTCLDY    30  27  88 CALM      29.76F
HAILEY         CLOUDY    34  32  93 CALM      29.76R
STANLEY          N/A     28  23  81 CALM      29.76F
SALMON         CLOUDY    36  28  75 CALM      29.79S
CHALLIS        CLOUDY    37  27  67 W10       29.76F WCI  30
$$

IDZ002-004-006-007-026-251100-
NORTHERN IDAHO


CITY           SKY/WX    TMP DP  RH WIND       PRES   REMARKS
LEWISTON       MOCLDY    41  31  67 CALM      29.83S
LOWELL           N/A     39  37  92 CALM      29.89S
COEUR D`ALENE  MOCLDY    34  28  80 NE3       29.83R
MULLAN PASS    CLOUDY    28  21  75 SW5       29.78R WCI  23
$$


USA.gov is the U.S. government's official web portal to all federal, state and local government web resources and services.